Flag for United Kingdom Weather past 2 weeks in Manchester, England, United Kingdom

Now
50 °F

Haze.


Feels Like: 45 °F
Forecast: 44 / 56 °F
Wind: 13 mph from East

Location: Manchester Airport


UV Index: 0 (Low)

Visibility: 3 mi


Pressure: 29.74 "Hg

Humidity: 88%

Dew point: 46 °F

Location of ManchesterLocation

Historic Weather in Manchester

°F

Manchester temperature yesterday

Maximum temperature yesterday: 57 °F (at 2:20 PM)
Minimum temperature yesterday: 39 °F (at 12:20 AM)
Average temperature yesterday: 49 °F

Past Weeks' High & Low Weather Summary

 TemperatureHumidityPressure
High61 °F (Apr 6, 1:50 PM)100% (Apr 7, 5:50 AM)30.45 "Hg (Apr 7, 5:50 AM)
Low34 °F (Apr 18, 4:20 AM)36% (Apr 18, 1:50 PM)29.53 "Hg (Apr 7, 1:50 PM)
Average49 °F74%30.08 "Hg
* Reported Apr 6 2:20 AM — Apr 21 2:50 AM, Manchester, Weather by CustomWeather, © 2014

Note: Actual official high and low records may vary slightly from our data, if they occured in-between our weather recording intervals... More about our weather records

Advertising

Historic Weather Conditions — Data for Previous 24 hours

 ConditionsComfort  
Time TempWeatherWind HumidityBarometerVisibility
2:50 AM
Apr 21
48 °FHaze.10 mph94%29.74 "Hg2 mi
2:20 AM50 °FPassing clouds.12 mph88%29.74 "Hg3 mi
1:50 AM50 °FPassing clouds.8 mph88%29.74 "Hg3 mi
1:20 AM52 °FPassing clouds.14 mph82%29.74 "Hg3 mi
12:50 AM52 °FPassing clouds.13 mph88%29.74 "Hg4 mi
12:20 AM52 °FPassing clouds.9 mph88%29.74 "Hg4 mi
11:50 PM
Apr 20
52 °FSprinkles. Passing clouds.9 mph82%29.74 "Hg4 mi
11:20 PM52 °FPassing clouds.17 mph82%29.74 "Hg5 mi
10:50 PM52 °FPassing clouds.18 mph82%29.74 "Hg5 mi
9:50 PM52 °FClear.25 mph77%29.71 "Hg6 mi
9:20 PM52 °FClear.25 mph77%29.71 "Hg6 mi
8:50 PM52 °FPassing clouds.22 mph77%29.71 "HgN/A
8:20 PM54 °FPassing clouds.17 mph72%29.71 "HgN/A
7:50 PM54 °FPassing clouds.21 mph72%29.71 "HgN/A
7:20 PM55 °FPassing clouds.17 mph72%29.71 "HgN/A
6:50 PM55 °FPassing clouds.24 mph72%29.71 "HgN/A
6:20 PM57 °FPassing clouds.18 mph67%29.74 "HgN/A
5:50 PM57 °FPassing clouds.18 mph67%29.74 "HgN/A
5:20 PM57 °FPassing clouds.22 mph67%29.74 "HgN/A
4:50 PM57 °FPassing clouds.22 mph67%29.74 "HgN/A
4:20 PM57 °FPassing clouds.23 mph67%29.77 "HgN/A
3:50 PM57 °FPassing clouds.21 mph67%29.77 "HgN/A
3:20 PM57 °FPassing clouds.22 mph67%29.77 "HgN/A
2:50 PM57 °FPassing clouds.22 mph67%29.80 "HgN/A
2:20 PM57 °FPassing clouds.23 mph67%29.80 "HgN/A
1:50 PM55 °FPassing clouds.23 mph72%29.80 "HgN/A
1:20 PM55 °FPassing clouds.26 mph72%29.83 "HgN/A
12:50 PM55 °FPassing clouds.26 mph72%29.83 "HgN/A
12:20 PM54 °FScattered clouds.26 mph77%29.83 "HgN/A
11:50 AM50 °FScattered clouds.21 mph82%29.86 "HgN/A
11:20 AM50 °FBroken clouds.18 mph82%29.86 "HgN/A
10:50 AM50 °FBroken clouds.16 mph82%29.89 "HgN/A
10:20 AM50 °FScattered clouds.17 mph76%29.89 "HgN/A
9:50 AM50 °FScattered clouds.20 mph76%29.89 "HgN/A
9:20 AM48 °FPassing clouds.18 mph82%29.89 "Hg6 mi
8:50 AM48 °FScattered clouds.17 mph82%29.92 "Hg6 mi
8:20 AM46 °FScattered clouds.10 mph82%29.92 "Hg6 mi
7:50 AM45 °FScattered clouds.14 mph87%29.95 "HgN/A
7:20 AM45 °FScattered clouds.15 mph81%29.95 "HgN/A
6:50 AM43 °FPassing clouds.16 mph87%29.95 "HgN/A
6:20 AM43 °FPassing clouds.7 mph87%29.95 "HgN/A
5:50 AM41 °FPassing clouds.6 mph87%29.95 "Hg6 mi
5:20 AM43 °FClear.12 mph87%29.98 "Hg6 mi
4:50 AM43 °FQuite cool.14 mph87%29.98 "Hg6 mi
4:20 AM41 °FQuite cool.12 mph87%29.98 "Hg6 mi
Weather by CustomWeather, © 2014

See weather overview